When you browse on this site, cookies collect data to enhance your experience and personalize the content and advertising you see.
Visit our Privacy Policy to learn more. By continuing to use the site, you agree to this use of cookies and data.
  • In Hungary
  • List of Countries
  • For 7 days
  • Water Temperature
  • Satellite Maps
  • Weather Map
  • News
  • Weather Widgets
  • user-avatar
    Login

    Hourly Weather Kindu

    Today, 17 February, Sunday

    Time Temperature Precipitation Wind Pressure Humidity
    00:00 +26°C° 2.4 mm 1 mps 719 mmHg 83%
    01:00 +25°C° 2.4 mm 1 mps 718 mmHg 91%
    02:00 +24°C° 0 mm 1 mps 718 mmHg 95%
    03:00 +22°C° 0.8 mm 0 mps 718 mmHg 96%
    04:00 +21°C° 0.8 mm 0 mps 718 mmHg 97%
    05:00 +21°C° 0.8 mm 0 mps 719 mmHg 97%
    06:00 +22°C° 0 mm 0 mps 719 mmHg 96%
    07:00 +23°C° 0 mm 0 mps 719 mmHg 95%
    08:00 +24°C° 0 mm 0 mps 720 mmHg 91%
    09:00 +26°C° 0.5 mm 0 mps 720 mmHg 80%
    10:00 +29°C° 0.5 mm 0 mps 720 mmHg 69%
    11:00 +32°C° 0.5 mm 0 mps 720 mmHg 58%
    12:00 +33°C° 0.6 mm 0 mps 719 mmHg 51%
    13:00 +35°C° 0.6 mm 0 mps 719 mmHg 44%
    14:00 +39°C° 0.6 mm 1 mps 718 mmHg 37%
    15:00 +37°C° 0 mm 1 mps 717 mmHg 41%
    16:00 +35°C° 0 mm 1 mps 717 mmHg 46%
    17:00 +34°C° 0 mm 1 mps 716 mmHg 50%
    18:00 +32°C° 0 mm 1 mps 716 mmHg 59%
    19:00 +30°C° 0 mm 1 mps 717 mmHg 69%
    20:00 +27°C° 0 mm 1 mps 717 mmHg 78%
    21:00 +27°C° 0.2 mm 1 mps 717 mmHg 81%
    22:00 +24°C° 0.2 mm 0 mps 718 mmHg 83%
    23:00 +23°C° 0.2 mm 0 mps 718 mmHg 86%

    Tomorrow, 18 February, Monday

    Time Temperature Precipitation Wind Pressure Humidity
    00:00 +23°C° 1 mm 0 mps 718 mmHg 90%
    01:00 +24°C° 1 mm 1 mps 718 mmHg 93%
    02:00 +24°C° 1 mm 1 mps 718 mmHg 97%
    03:00 +24°C° 0.4 mm 1 mps 718 mmHg 97%
    04:00 +24°C° 0.4 mm 1 mps 718 mmHg 97%
    05:00 +24°C° 0.4 mm 1 mps 717 mmHg 97%
    06:00 +24°C° 0.5 mm 1 mps 718 mmHg 97%
    07:00 +24°C° 0.5 mm 1 mps 718 mmHg 96%
    08:00 +24°C° 0.5 mm 1 mps 718 mmHg 96%
    09:00 +25°C° 0 mm 1 mps 719 mmHg 92%
    10:00 +26°C° 0 mm 1 mps 719 mmHg 87%
    11:00 +27°C° 0 mm 1 mps 719 mmHg 83%
    12:00 +29°C° 0 mm 1 mps 718 mmHg 73%
    13:00 +31°C° 0 mm 1 mps 718 mmHg 63%
    14:00 +33°C° 0 mm 1 mps 717 mmHg 53%
    15:00 +33°C° 0 mm 1 mps 716 mmHg 53%
    16:00 +31°C° 0 mm 0 mps 716 mmHg 53%
    17:00 +31°C° 0 mm 0 mps 716 mmHg 53%
    18:00 +29°C° 0 mm 0 mps 716 mmHg 59%
    19:00 +27°C° 0 mm 0 mps 716 mmHg 66%
    20:00 +25°C° 0 mm 0 mps 716 mmHg 73%
    21:00 +24°C° 0.1 mm 0 mps 717 mmHg 78%
    22:00 +24°C° 0.1 mm 0 mps 717 mmHg 83%
    23:00 +23°C° 0.1 mm 0 mps 718 mmHg 87%

    Day after tomorrow, 19 February, Tuesday

    Time Temperature Precipitation Wind Pressure Humidity
    00:00 +22°C° 1.5 mm 0 mps 718 mmHg 90%
    01:00 +22°C° 1.5 mm 0 mps 717 mmHg 94%
    02:00 +22°C° 1.5 mm 0 mps 717 mmHg 97%
    03:00 +22°C° 0 mm 0 mps 717 mmHg 97%
    04:00 +23°C° 0 mm 1 mps 717 mmHg 97%
    05:00 +23°C° 0 mm 1 mps 716 mmHg 97%
    06:00 +24°C° 0 mm 1 mps 717 mmHg 95%
    07:00 +25°C° 0 mm 1 mps 717 mmHg 93%
    08:00 +25°C° 0 mm 1 mps 718 mmHg 91%
    09:00 +28°C° 0 mm 1 mps 718 mmHg 77%
    10:00 +31°C° 0 mm 1 mps 718 mmHg 64%
    11:00 +33°C° 0 mm 1 mps 719 mmHg 51%
    12:00 +35°C° 0 mm 1 mps 718 mmHg 46%
    13:00 +36°C° 0 mm 1 mps 717 mmHg 41%
    14:00 +39°C° 0 mm 1 mps 716 mmHg 36%
    15:00 +36°C° 0 mm 1 mps 716 mmHg 41%
    16:00 +35°C° 0 mm 1 mps 715 mmHg 46%
    17:00 +34°C° 0 mm 1 mps 715 mmHg 51%
    18:00 +30°C° 0 mm 0 mps 715 mmHg 58%
    19:00 +28°C° 0 mm 0 mps 715 mmHg 64%
    20:00 +27°C° 0 mm 0 mps 716 mmHg 70%
    21:00 +28°C° 1.6 mm 1 mps 716 mmHg 77%
    22:00 +27°C° 1.6 mm 1 mps 717 mmHg 83%
    23:00 +26°C° 1.6 mm 1 mps 718 mmHg 89%

    20 February, Wednesday

    Time Temperature Precipitation Wind Pressure Humidity
    00:00 +25°C° 3.2 mm 2 mps 717 mmHg 92%
    01:00 +25°C° 3.2 mm 2 mps 717 mmHg 95%
    02:00 +24°C° 3.2 mm 2 mps 717 mmHg 97%
    03:00 +24°C° 0.1 mm 2 mps 717 mmHg 97%
    04:00 +24°C° 0.1 mm 1 mps 716 mmHg 97%
    05:00 +23°C° 0.1 mm 1 mps 716 mmHg 97%
    06:00 +24°C° 0 mm 1 mps 717 mmHg 94%
    07:00 +24°C° 0 mm 1 mps 717 mmHg 91%
    08:00 +25°C° 0 mm 1 mps 718 mmHg 88%
    09:00 +28°C° 0 mm 1 mps 718 mmHg 75%
    10:00 +31°C° 0 mm 1 mps 718 mmHg 61%
    11:00 +35°C° 0 mm 2 mps 719 mmHg 47%
    12:00 +35°C° 0 mm 1 mps 718 mmHg 43%
    13:00 +37°C° 0 mm 1 mps 717 mmHg 38%
    14:00 +39°C° 0 mm 1 mps 716 mmHg 34%
    15:00 +35°C° 0 mm 0 mps 716 mmHg 38%
    16:00 +34°C° 0 mm 0 mps 716 mmHg 42%
    17:00 +34°C° 0 mm 0 mps 715 mmHg 46%
    18:00 +31°C° 0 mm 0 mps 716 mmHg 52%
    19:00 +29°C° 0 mm 0 mps 716 mmHg 58%
    20:00 +27°C° 0 mm 0 mps 717 mmHg 64%
    21:00 +25°C° 1.7 mm 0 mps 717 mmHg 75%
    22:00 +23°C° 1.7 mm 0 mps 718 mmHg 86%
    23:00 +24°C° 1.7 mm 1 mps 718 mmHg 97%

    21 February, Thursday

    Time Temperature Precipitation Wind Pressure Humidity
    00:00 +22°C° 0.1 mm 0 mps 718 mmHg 96%
    01:00 +22°C° 0.1 mm 0 mps 717 mmHg 96%
    02:00 +22°C° 0.1 mm 0 mps 717 mmHg 96%
    03:00 +22°C° 0 mm 0 mps 717 mmHg 96%
    04:00 +21°C° 0 mm 0 mps 717 mmHg 96%
    05:00 +23°C° 0 mm 1 mps 716 mmHg 96%
    06:00 +24°C° 0 mm 1 mps 717 mmHg 94%
    07:00 +25°C° 0 mm 1 mps 718 mmHg 92%
    08:00 +26°C° 0 mm 1 mps 718 mmHg 90%
    09:00 +29°C° 0 mm 1 mps 719 mmHg 75%
    10:00 +32°C° 0 mm 1 mps 719 mmHg 61%
    11:00 +36°C° 0 mm 2 mps 719 mmHg 46%
    12:00 +37°C° 0 mm 1 mps 718 mmHg 41%
    13:00 +39°C° 0 mm 1 mps 717 mmHg 36%
    14:00 +38°C° 0 mm 0 mps 716 mmHg 32%
    15:00 +36°C° 0 mm 0 mps 716 mmHg 38%
    16:00 +34°C° 0 mm 0 mps 716 mmHg 44%
    17:00 +32°C° 0 mm 0 mps 715 mmHg 50%
    18:00 +30°C° 0.2 mm 0 mps 716 mmHg 59%
    19:00 +30°C° 0.2 mm 1 mps 716 mmHg 68%
    20:00 +28°C° 0.2 mm 1 mps 717 mmHg 77%
    21:00 +27°C° 1.3 mm 1 mps 717 mmHg 83%
    22:00 +26°C° 1.3 mm 1 mps 718 mmHg 90%
    23:00 +24°C° 1.3 mm 1 mps 718 mmHg 97%

    22 February, Friday

    Time Temperature Precipitation Wind Pressure Humidity
    00:00 +24°C° 1.1 mm 1 mps 718 mmHg 97%
    01:00 +22°C° 1.1 mm 0 mps 718 mmHg 98%
    02:00 +22°C° 1.1 mm 0 mps 717 mmHg 98%
    03:00 +22°C° 0 mm 0 mps 718 mmHg 98%
    04:00 +24°C° 0 mm 1 mps 718 mmHg 98%
    05:00 +24°C° 0 mm 1 mps 718 mmHg 98%
    06:00 +24°C° 0 mm 1 mps 718 mmHg 97%
    07:00 +24°C° 0 mm 1 mps 719 mmHg 96%
    08:00 +24°C° 0 mm 1 mps 719 mmHg 94%
    09:00 +26°C° 0 mm 1 mps 719 mmHg 83%
    10:00 +28°C° 0 mm 1 mps 719 mmHg 72%
    11:00 +30°C° 0 mm 1 mps 720 mmHg 60%
    12:00 +32°C° 0 mm 1 mps 719 mmHg 54%
    13:00 +34°C° 0 mm 1 mps 718 mmHg 47%
    14:00 +35°C° 0 mm 1 mps 717 mmHg 41%
    15:00 +35°C° 0 mm 1 mps 717 mmHg 44%
    16:00 +34°C° 0 mm 1 mps 717 mmHg 47%
    17:00 +33°C° 0 mm 1 mps 716 mmHg 49%
    18:00 +31°C° 0 mm 1 mps 717 mmHg 58%
    19:00 +29°C° 0 mm 1 mps 717 mmHg 67%
    20:00 +26°C° 0 mm 1 mps 717 mmHg 76%
    21:00 +26°C° 0.4 mm 1 mps 718 mmHg 82%
    22:00 +25°C° 0.4 mm 1 mps 718 mmHg 87%
    23:00 +24°C° 0.4 mm 1 mps 718 mmHg 92%
    Show more